This is the latest recevied weather packets stored in our database for station/object CT1EDG-13. If no packets are shown the sender has not sent any weather packets the latest 10 day(s).
| Time | Temp. | Humidity | Pressure | Rain* | Wind** | Luminosity | Snow |
|---|---|---|---|---|---|---|---|
| 1788484414 | 28.33° C | 50% | 1009.2 hPa | 0 mm | - | - | - |
| 1788483815 | 31.11° C | 39% | 1008.3 hPa | 0 mm | - | - | - |
| 1788483814 | 31.11° C | 39% | 1008.3 hPa | 0 mm | - | - | - |
| 1788483216 | 30.56° C | 39% | 1007.9 hPa | 0 mm | - | - | - |
| 1788483214 | 30.56° C | 39% | 1007.9 hPa | 0 mm | - | - | - |
| 1788482616 | 30.56° C | 39% | 1008 hPa | 0 mm | - | - | - |
| 1788482614 | 30.56° C | 39% | 1008 hPa | 0 mm | - | - | - |
| 1788482015 | 30° C | 39% | 1007.9 hPa | 0 mm | - | - | - |
| 1788482014 | 30° C | 39% | 1007.9 hPa | 0 mm | - | - | - |
| 1788481416 | 30.56° C | 34% | 1008 hPa | 0 mm | - | - | - |
| 1788481414 | 30.56° C | 34% | 1008 hPa | 0 mm | - | - | - |
| 1788480814 | 30.56° C | 33% | 1008.1 hPa | 0 mm | - | - | - |
| 1788480813 | 30.56° C | 33% | 1008.1 hPa | 0 mm | - | - | - |
| 1788480214 | 30° C | 36% | 1008.4 hPa | 0 mm | - | - | - |
| 1788480213 | 30° C | 36% | 1008.4 hPa | 0 mm | - | - | - |
| 1788479615 | 30.56° C | 32% | 1008.3 hPa | 0 mm | - | - | - |
| 1788479613 | 30.56° C | 32% | 1008.3 hPa | 0 mm | - | - | - |
| 1788479014 | 30.56° C | 33% | 1008.5 hPa | 0 mm | - | - | - |
| 1788479013 | 30.56° C | 33% | 1008.5 hPa | 0 mm | - | - | - |
| 1788478413 | 31.11° C | 32% | 1008.5 hPa | 0 mm | - | - | - |
| 1788478412 | 31.11° C | 32% | 1008.5 hPa | 0 mm | - | - | - |
| 1788477814 | 30.56° C | 33% | 1008.6 hPa | 0 mm | - | - | - |
| 1788477812 | 30.56° C | 33% | 1008.6 hPa | 0 mm | - | - | - |
| 1788477214 | 30° C | 36% | 1008.8 hPa | 0 mm | - | - | - |
| 1788477212 | 30° C | 36% | 1008.8 hPa | 0 mm | - | - | - |
* Rain latest hour (hover to see other rain measurements)
** Current wind speed in m/s (hover to see current wind gust speed)